User: anonymous   Login
Location: G?julap?du
(16.5372°N, 81.0979°E)
Time: 17:05:16
(UTC+00:00)
Language:

Cosmos 1939 Rocket - Orbit

View from above orbital plane
View from above orbital plane
View from above satellite
View from above satellite

Ground track
Ground track

The orbit is defined by the following mean orbital elements,

1 19046U          26159.22900264 +.00000000 +00000-0 +19640-3 0 00004
2 19046  97.5253 142.2794 0023652 278.6984  81.1572 15.20772910    02
Epoch (UTC): 08 June 2026 05:29:45
Eccentricity: 0.0023652
inclination: 97.5253°
perigee height: 487 km
apogee height: 520 km
right ascension of ascending node: 142.2794°
argument of perigee: 278.6984°
revolutions per day: 15.20772910
mean anomaly at epoch: 81.1572°

The dashed part of the orbit path shows where the satellite is in the earth's shadow,  

DLR